Date String (YYYY-MM-DD hh:mm:ss) UTC,Instrument flags,Ambient pressure (hPa),Sample flow (lpm),Bypass flow (lpm),Sample temperature (°C),Ambient temperature (°C),ASC tube jacket temperature (°C),LED temperature (°C),Box temperature (°C),Sample RH (%),Span deviation,Mass concentration (μg/m³),Mass concentration (μg/m³),Mass concentration (μg/m³)
DateTimeUTC,F1_M11,P_M11,Q1_M11,Q2_M11,T1_M11,T2_M11,T3_M11,T4_M11,T5_M11,U1_M11,ZSPAN_M11,X0_M11,X2_M11,X1_M11
2021-12-24 17:00:00,,0811.2,4.98,0.00,23.6,22.8,00.0,32.5,25.3,23.1,0000.0,0006.04,0000.97,0000.29
2021-12-24 17:01:00,,0811.2,5.00,0.00,23.6,22.8,00.0,32.5,25.3,22.8,0000.0,0006.31,0000.97,0000.28
2021-12-24 17:02:00,,0811.1,5.00,0.00,23.6,22.8,00.0,32.5,25.3,22.7,0000.0,0006.03,0000.88,0000.28
2021-12-24 17:03:00,,0811.0,5.01,0.00,23.6,22.8,00.0,32.5,25.3,22.7,0000.0,0005.32,0000.85,0000.27
2021-12-24 17:04:00,,0811.0,4.99,0.00,23.6,22.8,00.0,32.5,25.2,22.6,0000.0,0005.20,0000.82,0000.26
2021-12-24 17:05:00,,0811.0,5.01,0.00,23.6,22.8,00.0,32.5,25.3,22.5,0000.0,0004.26,0000.80,0000.26
2021-12-24 17:06:00,,0811.1,5.00,0.00,23.5,22.8,00.0,32.5,25.3,22.4,0000.0,0002.55,0000.81,0000.26
2021-12-24 17:07:00,,0811.1,4.99,0.00,23.6,22.9,00.0,32.5,25.3,22.6,0000.0,0002.63,0000.85,0000.26
2021-12-24 17:08:00,,0811.2,5.00,0.00,23.6,22.9,00.0,32.5,25.3,22.5,0000.0,0002.59,0000.83,0000.26
2021-12-24 17:09:00,,0811.2,5.00,0.00,23.6,22.9,00.0,32.5,25.3,22.5,0000.0,0002.62,0000.85,0000.27
2021-12-24 17:10:00,,0811.2,5.00,0.00,23.6,22.9,00.0,32.5,25.3,22.6,0000.0,0002.72,0000.90,0000.28
2021-12-24 17:11:00,,0811.2,5.01,0.00,23.6,22.9,00.0,32.5,25.4,22.4,0000.0,0002.54,0000.92,0000.28
2021-12-24 17:12:00,,0811.2,5.02,0.00,23.6,22.9,00.0,32.5,25.4,22.4,0000.0,0002.28,0000.91,0000.28
2021-12-24 17:13:00,,0811.4,5.00,0.00,23.6,23.0,00.0,32.5,25.4,22.7,0000.0,0002.47,0000.95,0000.28
2021-12-24 17:14:00,,0811.5,4.99,0.00,23.6,23.0,00.0,32.6,25.4,22.7,0000.0,0002.33,0000.91,0000.27
2021-12-24 17:15:00,,0811.4,5.01,0.00,23.6,23.0,00.0,32.6,25.5,22.2,0000.0,0002.32,0000.91,0000.27
2021-12-24 17:16:00,,0811.3,4.99,0.00,23.7,23.0,00.0,32.6,25.5,22.2,0000.0,0002.32,0000.91,0000.26
2021-12-24 17:17:00,,0811.3,4.99,0.00,23.7,23.0,00.0,32.6,25.4,22.2,0000.0,0002.19,0000.86,0000.26
2021-12-24 17:18:00,,0811.2,5.01,0.00,23.7,23.0,00.0,32.6,25.4,22.6,0000.0,0002.12,0000.83,0000.26
2021-12-24 17:19:00,,0811.2,4.98,0.00,23.6,23.0,00.0,32.6,25.4,22.5,0000.0,0002.18,0000.85,0000.26
2021-12-24 17:20:00,,0811.1,5.00,0.00,23.7,23.0,00.0,32.6,25.5,22.3,0000.0,0002.12,0000.82,0000.26
2021-12-24 17:21:00,,0811.1,4.99,0.00,23.7,23.0,00.0,32.6,25.5,22.0,0000.0,0002.12,0000.82,0000.25
2021-12-24 17:22:00,,0811.1,5.00,0.00,23.7,23.0,00.0,32.6,25.4,22.4,0000.0,0002.75,0000.81,0000.25
2021-12-24 17:23:00,,0811.2,5.01,0.00,23.7,23.0,00.0,32.6,25.5,22.5,0000.0,0002.79,0000.79,0000.25
2021-12-24 17:24:00,,0811.1,4.98,0.00,23.7,23.0,00.0,32.6,25.5,22.7,0000.0,0002.74,0000.78,0000.26
2021-12-24 17:25:00,,0811.0,5.00,0.00,23.7,23.0,00.0,32.6,25.5,23.2,0000.0,0002.97,0000.82,0000.27
2021-12-24 17:26:00,,0811.0,5.01,0.00,23.7,23.0,00.0,32.6,25.5,23.4,0000.0,0002.86,0000.81,0000.28
2021-12-24 17:27:00,,0811.0,5.01,0.00,23.7,23.0,00.0,32.6,25.5,23.6,0000.0,0002.73,0000.78,0000.28
2021-12-24 17:28:00,,0810.9,4.99,0.00,23.7,23.1,00.0,32.6,25.5,24.2,0000.0,0002.80,0000.81,0000.29
2021-12-24 17:29:00,,0810.9,4.99,0.00,23.7,23.1,00.0,32.7,25.5,24.9,0000.0,0002.85,0000.82,0000.29
2021-12-24 17:30:00,,0811.0,5.00,0.00,23.8,23.1,00.0,32.7,25.5,24.4,0000.0,0003.04,0000.85,0000.29
2021-12-24 17:31:00,,0811.0,5.01,0.00,23.8,23.1,00.0,32.7,25.5,23.7,0000.0,0003.15,0000.89,0000.30
2021-12-24 17:32:00,,0811.0,4.99,0.00,23.8,23.1,00.0,32.7,25.5,23.6,0000.0,0003.19,0000.91,0000.30
2021-12-24 17:33:00,,0811.0,4.98,0.00,23.8,23.1,00.0,32.7,25.5,23.5,0000.0,0002.61,0000.87,0000.31
2021-12-24 17:34:00,,0811.0,5.00,0.00,23.8,23.1,00.0,32.7,25.5,23.2,0000.0,0003.11,0000.94,0000.31
2021-12-24 17:35:00,,0811.1,5.00,0.00,23.8,23.1,00.0,32.7,25.5,23.1,0000.0,0003.15,0000.98,0000.32
2021-12-24 17:36:00,,0811.0,4.99,0.00,23.8,23.1,00.0,32.7,25.5,23.2,0000.0,0003.06,0000.95,0000.32
2021-12-24 17:37:00,,0811.0,4.99,0.00,23.8,23.1,00.0,32.7,25.5,23.3,0000.0,0003.93,0000.98,0000.32
2021-12-24 17:38:00,,0811.0,5.00,0.00,23.8,23.2,00.0,32.7,25.5,23.3,0000.0,0004.03,0001.04,0000.34
2021-12-24 17:39:00,,0811.0,5.01,0.00,23.8,23.2,00.0,32.7,25.6,23.2,0000.0,0004.03,0001.06,0000.36
2021-12-24 17:40:00,,0811.0,4.99,0.00,23.8,23.2,00.0,32.8,25.6,23.2,0000.0,0004.22,0001.12,0000.39
2021-12-24 17:41:00,,0811.0,5.00,0.00,23.8,23.2,00.0,32.8,25.6,23.1,0000.0,0004.23,0001.13,0000.42
2021-12-24 17:42:00,,0811.0,5.01,0.00,23.9,23.2,00.0,32.8,25.6,23.1,0000.0,0004.24,0001.16,0000.44
2021-12-24 17:43:00,,0811.1,5.01,0.00,23.9,23.2,00.0,32.8,25.6,23.0,0000.0,0004.26,0001.17,0000.48
2021-12-24 17:44:00,,0811.1,4.98,0.00,23.9,23.2,00.0,32.8,25.6,22.9,0000.0,0004.56,0001.26,0000.50
2021-12-24 17:45:00,,0811.0,5.01,0.00,23.9,23.2,00.0,32.8,25.6,23.0,0000.0,0004.16,0001.24,0000.53
2021-12-24 17:46:00,,0811.1,5.00,0.00,23.9,23.1,00.0,32.8,25.6,23.1,0000.0,0003.88,0001.19,0000.52
2021-12-24 17:47:00,,0811.2,5.00,0.00,23.9,23.1,00.0,32.8,25.6,23.2,0000.0,0003.99,0001.22,0000.53
2021-12-24 17:48:00,,0811.2,4.99,0.00,23.9,23.1,00.0,32.8,25.6,23.2,0000.0,0003.14,0001.21,0000.53
2021-12-24 17:49:00,,0811.3,5.02,0.00,23.9,23.1,00.0,32.8,25.6,23.3,0000.0,0003.00,0001.19,0000.52
2021-12-24 17:50:00,,0811.3,4.99,0.00,23.9,23.1,00.0,32.8,25.6,23.2,0000.0,0003.08,0001.17,0000.51
2021-12-24 17:51:00,,0811.3,5.01,0.00,23.9,23.1,00.0,32.8,25.6,23.4,0000.0,0003.01,0001.15,0000.49
2021-12-24 17:52:00,,0811.4,5.00,0.00,23.9,23.2,00.0,32.8,25.6,23.6,0000.0,0002.78,0001.09,0000.46
2021-12-24 17:53:00,,0811.5,5.00,0.00,23.9,23.2,00.0,32.9,25.6,23.7,0000.0,0002.67,0001.03,0000.43
2021-12-24 17:54:00,,0811.6,4.99,0.00,23.9,23.2,00.0,32.9,25.6,23.9,0000.0,0002.50,0000.95,0000.39
2021-12-24 17:55:00,,0811.4,5.01,0.00,23.9,23.2,00.0,32.9,25.6,24.0,0000.0,0002.95,0000.88,0000.35
2021-12-24 17:56:00,,0811.3,5.01,0.00,23.9,23.1,00.0,32.9,25.6,24.1,0000.0,0003.79,0000.83,0000.32
2021-12-24 17:57:00,,0811.2,4.99,0.00,23.9,23.1,00.0,32.9,25.6,24.0,0000.0,0003.84,0000.81,0000.31
2021-12-24 17:58:00,,0811.2,5.01,0.00,23.9,23.1,00.0,32.9,25.6,24.1,0000.0,0004.73,0000.75,0000.29
2021-12-24 17:59:00,,0811.2,5.00,0.00,23.9,23.1,00.0,32.9,25.6,24.2,0000.0,0004.73,0000.73,0000.27
